Location: *
(50.5492°N, 7.7469°E)
Time: 07:42:05
(UTC+00:00)

Cosmos 1939 Rocket - Pass Details

Date: 21 October 2019
Orbit: 533 x 584 km, 97.4° (Epoch: 14 November)

Event Time Altitude Azimuth Distance (km) Brightness Sun altitude
Exits shadow 17:49:18 - 151° (SSE) 2,506 5.9 -14.0°
Reaches altitude 10° 17:50:53 10° 148° (SSE) 1,851 5.2 -14.2°
Maximum altitude 17:54:47 52° 71° (ENE) 710 3.0 -14.8°
Drops below altitude 10° 17:58:47 10° 355° (N) 1,894 5.6 -15.5°
Sets 18:00:59 0° 351° (N) 2,804 6.6 -15.8°
